Find Iridium Next SV144

NORAD ID: 43249 Int'l Des: 2018-030 Owner: IRIDS Country: US Constellation: Iridium NEXT operational
LEOCIRCULARPOLAR

現在のビュー

3D地球を読み込み中...

Iridium Next SV144について

説明を読み込み中...

次回通過

Passes for default location (London). Set your location on the main map for personalized predictions.

高度履歴

Loading altitude history...

軌道要素

1 43249U 18030A 26151.48614969 .00000097 00000-0 27750-4 0 9997
2 43249 86.3944 297.3852 0002053 91.9929 268.1502 14.34218177427749
Epoch: May 31, 2026 • Age: 7 hours

現在のステータス

高度 784.9 km
速度 7.47 km/s
衛星直下点 51.74°N, 61°W
打ち上げ日 Mar 30, 2018
運用期間 8.1 years
タイプ communications

技術仕様

分類 Payload
質量 860.00 kg
乾燥質量 700.00 kg
総質量 860.00 kg
長さ 3.10 m
直径 1.50 m
スパン 9.40 m
形状 Half Hex Prism+2 pan
製造者 OATKGA
バスタイプ EliteBus
フェーズステータス In Orbit
所有者/国 IRIDS/US

Most Searched